STARLINK-11276, 61244

Orbit data source: Space-Track

STARLINK-11276, 61244 is a payload satellite owned by SpaceX/Seattle (US) in LEO that was launched on Wed, 25 Sep 2024 UTC via an FALCON 9 launch vehicle from the Air Force Western Test Range (AFWTR). Payload-class satellites include a variety of spacecraft equipped with specific instruments for various scientific and technological missions. These include communications satellites like Starlink; space stations such as the ISS; scientific satellites like the Hubble; Earth observation satellites from companies like Planet Labs, Umbra, and HawkEye 360; GPS; miniature CubeSats for education and research; and military/defense satellites.

Loading next visibility...
Identifier
61244, 2024-175B
Orbit
LEO
Last TLE update
6 hours ago
Origin
Manufacturer
SpaceX/Seattle
Mission
Operational Commercial Communications
Bus & Motor
STARLINK V2M, Unknown motor
Mass
730 kg wet, ~700 kg dry
Launch date (UTC)
2024-09-25 (10 months ago)
Launch vehicle
FALCON 9
Launch site
Air Force Western Test Range (AFWTR)
Object type
Payload
Rocket body
Debris
Shape & HBR
Box + 2 Pan, 29 m
Radar Cross Section
36.964 m², Large (>1 m²)

Expand to show TLE details & history

TLE from 6 hours ago
0 STARLINK-11276
1 61244U 24175B   25192.17103568 -.00000196  00000-0  32441-5 0  9992
2 61244  53.1587 166.8398 0001054  81.5641 278.5496 15.69705337 46326
Epoch: 2025-07-11T04:06Z
TLE epoch observation values (Epoch: 2025-07-11T04:06:17.482Z)
Latitude
-0.00006°
Longitude
175.94011°
Altitude
360.55 km
Speed
7.694 km/s
True Right ascension
11h 07m 21s
True Declination
0° 00' 00"
Sunlit
Object was in daylight at epoch
Visualization orbit readout
Latitude
-31.90524°
Longitude
22.44011°
Altitude
370.159 km
Speed
7.687 km/s
Apparent Right ascension
04h 40m 52s
Apparent Declination
-61° 42' 43"
Sunlit
Object is in daylight
Visualization observer readout
Local Sidereal Time
21:55:20
Azimuth
142.948° SSE
Elevation
-39.552°
Doppler factor
1
Orbital elements
Apogee altitude
360.711 km
Perigee altitude
359.291 km
Semi-major axis
6,738.138 km
Eccentricity
0.00011
Inclination
53.1587°
RAAN
166.8398°
Arg. of periapsis
81.5641°
True anomaly
Unknown
Mean anomaly
278.5496°
Eccentric anomaly
Unknown
Mean motion
3.92404 °/min
Orbital period
91.74 mins
BSTAR
0.0000032441
Loading maneuver chart data...
Loading SW <> Apogee altitude chart data...
Loading historical data...
Loading historical data...
Loading historical data...
Loading historical data...
Loading historical data...
Loading historical data...
Loading historical data...

STARLINK-11276 Visibility forecast

Observer location: undefined°, undefined°

Span
Click to sort rows by Start time (UTC) header in descending order
Start Az.
Max El. time (UTC)
Max El. Az.
Max El.
End time (UTC)
End Az.
4 mins2025-07-12 00:07:36.238Z179.366° S2025-07-12 00:09:36.238Z136.126° SSE18.426°2025-07-12 00:11:36.238Z87.322° E
4 mins2025-07-12 01:43:36.238Z277.113° WNW2025-07-12 01:44:36.238Z308.379° NW27.131°2025-07-12 01:47:36.238Z32.483° NE
|